Change the Weather History Date:

Monday, November 11, 2013

  Actual Average Record
Temperature  
Mean Temperature 51 °F 49 °F  
Max Temperature 66 °F 59 °F 81 °F (1956)
Min Temperature 35 °F 38 °F 12 °F (1950)
Degree Days  
Heating Degree Days 14 16  
Month to date heating degree days 168 159  
Since 1 July heating degree days 441 462  
Cooling Degree Days 0 0  
Month to date cooling degree days 0 0  
Year to date cooling degree days 1073 1352  
Moisture  
Dew Point 40 °F    
Average Humidity 66    
Maximum Humidity 92    
Minimum Humidity 39    
Precipitation  
Precipitation T in 0.16 in 1.09 in (2004)
Month to date precipitation 1.34 1.57  
Year to date precipitation 48.73 39.57  
Sea Level Pressure  
Sea Level Pressure 30.26 in    
Wind  
Wind Speed 6 mph (WNW)    
Max Wind Speed 22 mph    
Max Gust Speed 32 mph    
Visibility 9 miles    
Events Rain    
T = Trace of Precipitation, MM = Missing Value Source: NWS Daily Summary

Daily Weather History Graph

Daily Weather History Graph

Search for Another Location

Airport or City:

Trip Planner

Search our weather history database for the weather conditions in past years. The results will help you decide how hot, cold, wet, or windy it might be!

Date:

Astronomy

Nov. 11, 2013 Rise Set
Actual Time 6:42 AM CST 5:00 PM CST
Civil Twilight 6:14 AM CST 5:28 PM CST
Nautical Twilight 5:43 AM CST 5:59 PM CST
Astronomical Twilight 5:12 AM CST 6:29 PM CST
Moon 1:33 PM CST (11/11) 12:36 AM CST (11/11)
Length of Visible Light 11h 13m
Length of Day
10h 18m
Waxing Gibbous, 66% of the Moon is Illuminated
Nov 11
Waxing Gibbous
Nov 17
Full
Nov 25
Last Quarter
Dec 2
New
Dec 9
First Quarter

Hourly Weather History & Observations

Time (CST) Temp. Windchill Dew Point Humidity Pressure Visibility Wind Dir Wind Speed Gust Speed Precip Events Conditions
12:53 AM 37.9 °F - 33.1 °F 83% 30.30 in 10.0 mi Calm Calm - N/A   Clear
1:53 AM 37.9 °F - 34.0 °F 86% 30.29 in 10.0 mi Calm Calm - N/A   Clear
2:53 AM 36.0 °F 33.3 °F 33.1 °F 89% 30.28 in 10.0 mi NNW 3.5 mph - N/A   Clear
3:53 AM 36.0 °F - 33.1 °F 89% 30.27 in 10.0 mi Calm Calm - N/A   Clear
4:53 AM 41.0 °F - 37.9 °F 89% 30.28 in 5.0 mi Calm Calm - N/A   Overcast
5:53 AM 46.0 °F - 37.9 °F 73% 30.27 in 10.0 mi Calm Calm - N/A   Overcast
6:53 AM 46.9 °F - 35.1 °F 63% 30.28 in 10.0 mi SW 4.6 mph - N/A   Overcast
7:53 AM 48.9 °F - 33.1 °F 54% 30.29 in 8.0 mi SW 3.5 mph - N/A   Overcast
8:53 AM 52.0 °F - 32.0 °F 47% 30.28 in 8.0 mi SSW 6.9 mph - N/A   Overcast
9:53 AM 55.9 °F - 33.1 °F 42% 30.28 in 10.0 mi SW 6.9 mph - N/A   Overcast
10:53 AM 61.0 °F - 35.1 °F 38% 30.25 in 3.0 mi SW 8.1 mph - N/A   Haze
11:53 AM 63.0 °F - 41.0 °F 45% 30.23 in 3.0 mi West 10.4 mph - N/A   Haze
12:53 PM 64.9 °F - 43.0 °F 45% 30.20 in 5.0 mi West 10.4 mph - N/A   Haze
1:53 PM 64.9 °F - 43.0 °F 45% 30.18 in 8.0 mi West 5.8 mph - N/A   Overcast
2:53 PM 64.0 °F - 44.1 °F 48% 30.18 in 9.0 mi West 9.2 mph - N/A   Overcast
3:53 PM 62.1 °F - 44.1 °F 52% 30.19 in 8.0 mi West 8.1 mph - N/A   Overcast
4:53 PM 60.1 °F - 45.0 °F 57% 30.19 in 9.0 mi Calm Calm - N/A   Overcast
5:53 PM 59.0 °F - 45.0 °F 60% 30.19 in 10.0 mi WSW 3.5 mph - N/A   Overcast
6:53 PM 57.0 °F - 46.9 °F 69% 30.20 in 10.0 mi WNW 4.6 mph - 0.00 in Rain Light Rain
7:15 PM 57.9 °F - 46.9 °F 67% 30.21 in 10.0 mi WNW 6.9 mph - 0.00 in Rain Light Rain
7:53 PM 57.9 °F - 48.0 °F 70% 30.22 in 10.0 mi NW 5.8 mph - 0.00 in   Overcast
8:53 PM 57.9 °F - 50.0 °F 75% 30.24 in 10.0 mi North 8.1 mph - N/A   Overcast
9:29 PM 50.0 °F - 46.0 °F 86% 30.29 in 9.0 mi North 19.6 mph 28.8 mph N/A   Overcast
9:53 PM 46.0 °F 39.3 °F 41.0 °F 83% 30.31 in 9.0 mi North 16.1 mph 26.5 mph N/A   Overcast
10:38 PM 44.1 °F 36.5 °F 39.0 °F 82% 30.34 in 10.0 mi North 17.3 mph 28.8 mph N/A   Overcast
10:53 PM 43.0 °F 35.1 °F 39.0 °F 86% 30.35 in 10.0 mi North 17.3 mph 23.0 mph N/A   Overcast
11:53 PM 39.9 °F 32.5 °F 37.0 °F 89% 30.38 in 7.0 mi North 12.7 mph - 0.00 in Rain Light Rain